GALAXY 32 (G-32)

Last updated on Sat Aug 15 2026 00:03:03 GMT+0000 (Coordinated Universal Time)

1 54244U 22153B 26226.54994266 -.00000190 00000+0 00000+0 0 9994 2 54244 0.0167 75.8418 0000869 346.6067 7.4957 1.00272130 13724
UTC large
Height (km)
Speed (km/s)
/
Latitude / Longitude
Inclination (degrees)
Orbital Period (minutes)
Azimuth
Elevation
Range (km)
Doppler Factor

Next 0 passes for location: London (51.5072 / 0.1276)

No passes found over London.
GALAXY 32 (G-32)